Regional Weather Roundup
Issued by NWS

Home | Current Version | Previous Version | Text Only | Print | Product List | Glossary Off
Versions: 1 2 3 4 5 6 7 8 9 10 11 12 13 14 15 16 17 18 19 20 21 22 23 24 25 26 27 28 29 30 31 32 33 34 35 36 37 38 39 40 41 42 43 44 45 46 47 48 49 50

000
ASUS43 KDTX 191210
RWRMI
MICHIGAN HOURLY REGIONAL WEATHER ROUNDUP
NATIONAL WEATHER SERVICE DETROIT/PONTIAC MI
700 AM EST THU JAN 19 2017

NOTE: "FAIR" INDICATES FEW OR NO CLOUDS BELOW 12,000 FEET WITH NO
SIGNIFICANT WEATHER AND/OR OBSTRUCTION TO VISIBILITY.

MIZ047>049-052>055-059>063-066>070-074>076-081>083-191300-
SOUTHEAST LOWER MICHIGAN

CITY           SKY/WX    TMP DP  RH WIND       PRES   REMARKS
ADRIAN         CLOUDY    32  32 100 W3        30.08F
6HR MIN TEMP:  32; 6HR MAX TEMP:  32;

ALMA           CLOUDY    35  32  90 SW9       30.03S FOG     WCI  27
6HR MIN TEMP:  33; 6HR MAX TEMP:  35;

ANN ARBOR      CLOUDY    33  31  92 SW8       30.07R WCI  26
BAD AXE        CLOUDY    32  32 100 SW8       30.04R FOG     WCI  25
6HR MIN TEMP:  32; 6HR MAX TEMP:  33;

CARO           CLOUDY    33  32  97 SW9       30.03S FOG     WCI  25
DETROIT CITY   CLOUDY    34  30  86 W8        30.07S WCI  27
DETROIT        CLOUDY    34  31  88 SW12      30.09R WCI  25
6HR MIN TEMP:  33; 6HR MAX TEMP:  34;

FLINT          CLOUDY    33  30  88 SW8       30.05S WCI  26
6HR MIN TEMP:  32; 6HR MAX TEMP:  33;

GROSSE ILE     CLOUDY    33  31  93 W8        30.08R WCI  26
6HR MIN TEMP:  33; 6HR MAX TEMP:  34;

HILLSDALE      CLOUDY    32  32 100 SW6       30.04F FOG     WCI  26
HOWELL         CLOUDY    32  30  92 W9        30.05S WCI  25

CITY           SKY/WX    TMP DP  RH WIND       PRES   REMARKS
JACKSON        CLOUDY    33  30  88 W9        30.06S WCI  25
6HR MIN TEMP:  32; 6HR MAX TEMP:  33;

LAMBERTVILLE   CLOUDY    36  32  87 W5        30.09S FOG     WCI  32
6HR MIN TEMP:  35; 6HR MAX TEMP:  36;

LANSING        CLOUDY    34  29  82 SW9       30.06R WCI  27
6HR MIN TEMP:  33; 6HR MAX TEMP:  34;

LAPEER         CLOUDY    33  31  96 W7        30.04F WCI  26
6HR MIN TEMP:  32; 6HR MAX TEMP:  34;

MASON          CLOUDY    33  31  94 SW6       30.06S WCI  27
MONROE         CLOUDY    33  33  96 W13       30.08S FOG     WCI  24
MT. CLEMENS    CLOUDY    33  31  92 W7        30.05R WCI  27
6HR MIN TEMP:  33; 6HR MAX TEMP:  35;

PONTIAC        CLOUDY    32  28  85 W8        30.04R WCI  25
6HR MIN TEMP:  31; 6HR MAX TEMP:  33;

PORT HOPE        N/A     34  32  92 SW5       30.02R WCI  30
6HR MIN TEMP:  34; 6HR MAX TEMP:  35;

PORT HURON     CLOUDY    32  30  93 W3        30.06S
TRI CITIES     CLOUDY    34  33  96 SW9       30.04R FOG     WCI  27
6HR MIN TEMP:  34; 6HR MAX TEMP:  34;

MIDLAND        CLOUDY    35  32  89 SW3       30.03R
6HR MIN TEMP:  35; 6HR MAX TEMP:  35;

TROY           CLOUDY    33  30  88 W5        30.07F WCI  29
SAGINAW HB     CLOUDY    34  32  93 SW9       30.04S WCI  26
$$
MIZ043>046-050>051-056>058-064>065-071>073-077>080-191300-
SOUTHWEST LOWER MICHIGAN

CITY           SKY/WX    TMP DP  RH WIND       PRES   REMARKS
BATTLE CREEK   CLOUDY    33  31  92 SW6       30.04F WCI  28
6HR MIN TEMP:  33; 6HR MAX TEMP:  34;

BENTON HARBOR  CLOUDY    36  33  89 S6        30.04F FOG     WCI  31
6HR MIN TEMP:  36; 6HR MAX TEMP:  37;

BIG RAPIDS     CLOUDY    33  32  94 SW5       29.99S FOG     WCI  29
6HR MIN TEMP:  33; 6HR MAX TEMP:  34;

COLDWATER      CLOUDY    33  33 100 SW5       30.05F WCI  29
6HR MIN TEMP:  33; 6HR MAX TEMP:  34;

FREMONT        CLOUDY    34  34  99 SW6       30.01S FOG     WCI  29
HOLLAND        CLOUDY    37  35  92 SW6       30.03F WCI  32
6HR MIN TEMP:  36; 6HR MAX TEMP:  38;

GRAND RAPIDS   CLOUDY    36  32  85 SW7       30.03S FOG     WCI  30
6HR MIN TEMP:  34; 6HR MAX TEMP:  36;

IONIA          CLOUDY    34  32  92 SW8G16    30.03S FOG     WCI  28
6HR MIN TEMP:  32; 6HR MAX TEMP:  34;

KALAMAZOO      CLOUDY    34  30  85 SW5       30.06F WCI  30
6HR MIN TEMP:  34; 6HR MAX TEMP:  35;

LUDINGTON      CLOUDY    34  34  99 SW9       29.99S FOG     WCI  27
6HR MIN TEMP:  34; 6HR MAX TEMP:  35;

MARSHALL       CLOUDY    33  32  95 SW5       30.04F WCI  29
6HR MIN TEMP:  33; 6HR MAX TEMP:  34;

MOUNT PLEASANT CLOUDY    35  33  92 SW10      30.01S FOG     WCI  27
6HR MIN TEMP:  34; 6HR MAX TEMP:  35;

MUSKEGON       CLOUDY    38  35  89 SW8       30.02F WCI  32
6HR MIN TEMP:  36; 6HR MAX TEMP:  38;

SOUTH HAVEN    CLOUDY    36  34  94 S6        30.05R FOG     WCI  31
$$
MIZ016>042-191300-
NORTHERN LOWER MICHIGAN

CITY           SKY/WX    TMP DP  RH WIND       PRES   REMARKS
ALPENA         CLOUDY    34  31  88 SW3       30.00R
6HR MIN TEMP:  34; 6HR MAX TEMP:  36;

BEAVER ISLAND  CLOUDY    36  33  90 S8        29.94R WCI  29
6HR MIN TEMP:  35; 6HR MAX TEMP:  36;

BELLAIRE       CLOUDY    35  33  91 S5        29.98S FOG     WCI  31
6HR MIN TEMP:  35; 6HR MAX TEMP:  35;

CADILLAC       FOG       32  31  98 SW8       29.96S VSB 3/4 WCI  25
CHARLEVOIX     CLOUDY    36  34  92 S5        30.00R FOG     WCI  32
6HR MIN TEMP:  34; 6HR MAX TEMP:  36;

FRANKFORT      CLOUDY    36  35  95 SW9       29.98R FOG     WCI  29
GAYLORD        CLOUDY    34  30  85 SW9       29.95S FOG     WCI  27
6HR MIN TEMP:  34; 6HR MAX TEMP:  34;

GRAYLING       CLOUDY    34  32  94 SW3       29.98S FOG
6HR MIN TEMP:  34; 6HR MAX TEMP:  34;

HARBOR SPRINGS CLOUDY    35  33  92 SW7       29.96S FOG     WCI  29
HOUGHTON LAKE  CLOUDY    33  31  92 SW7       29.98S FOG     WCI  27
6HR MIN TEMP:  33; 6HR MAX TEMP:  33;

MANISTEE       CLOUDY    35  33  92 S6        29.99R FOG     WCI  30
OSCODA         CLOUDY    35  32  90 SW3       30.01R
6HR MIN TEMP:  35; 6HR MAX TEMP:  36;

PELLSTON       CLOUDY    36  31  82 SW8       29.97R HAZE    WCI  30
6HR MIN TEMP:  36; 6HR MAX TEMP:  36;

ROGERS CITY    CLOUDY    35  32  89 CALM      30.00R
TRAVERSE CITY  CLOUDY    36  32  85 VRB5      29.97R WCI  32
6HR MIN TEMP:  36; 6HR MAX TEMP:  36;

$$
MIZ007>008-015-191300-
EASTERN UPPER MICHIGAN

CITY           SKY/WX    TMP DP  RH WIND       PRES   REMARKS
KINROSS        CLOUDY    34  33  96 S3        29.95R
6HR MIN TEMP:  34; 6HR MAX TEMP:  35;

MACKINAC ISLAN CLOUDY    35  35 100 SW6       29.95R WCI  29
6HR MIN TEMP:  34; 6HR MAX TEMP:  35;

NEWBERRY       CLOUDY    31  30  97 S5        29.91R FOG     WCI  26
6HR MIN TEMP:  31; 6HR MAX TEMP:  32;

S. S. MARIE    CLOUDY    36  33  89 SE6       29.94R WCI  31
6HR MIN TEMP:  34; 6HR MAX TEMP:  36;

MUNISING         N/A     27  25  92 S6        29.88S WCI  20
6HR MIN TEMP:  27; 6HR MAX TEMP:  30;

$$
MIZ004>006-011>014-085-191300-
CENTRAL UPPER MICHIGAN

CITY           SKY/WX    TMP DP  RH WIND       PRES   REMARKS
MANISTIQUE     CLOUDY    29  28  97 S3        29.92R FOG
6HR MIN TEMP:  23; 6HR MAX TEMP:  31;

ESCANABA       CLOUDY    27  27 100 SW8       29.93R FOG     WCI  19
6HR MIN TEMP:  25; 6HR MAX TEMP:  29;

$$
MIZ001>003-009>011-084-191300-
WESTERN UPPER MICHIGAN

CITY           SKY/WX    TMP DP  RH WIND       PRES   REMARKS
IRON MOUNTAIN  CLOUDY    29  26  89 S5        29.88R FOG     WCI  24
6HR MIN TEMP:  19; 6HR MAX TEMP:  30;

HOUGHTON       CLOUDY    22  20  92 CALM      29.82R FOG
6HR MIN TEMP:  20; 6HR MAX TEMP:  28;

COPPER HARBOR    N/A     29  27  92 CALM      29.83S
6HR MIN TEMP:  28; 6HR MAX TEMP:  31;

IRONWOOD       CLOUDY    34  33  96 S6        29.84R FOG     WCI  29
6HR MIN TEMP:  29; 6HR MAX TEMP:  34;

$$

ABBREVIATIONS USED IN REMARKS
   TC - TEMPERATURE IN CELSIUS
  WCI - WIND CHILL INDEX
   HX - HEAT INDEX
  VSB - VISIBILITY





USA.gov is the U.S. government's official web portal to all federal, state and local government web resources and services.